    Orbital elements:
    2017 SM2                                                 Earth MOID = 0.0007 AU
    Epoch 2017 Sept. 4.0 TT = JDT 2458000.5                 MPC
    M 315.73943              (2000.0)            P               Q
    n   0.67360522     Peri.  242.59118     +0.50948386     -0.86045940
    a   1.2888402      Node   176.76057     +0.82214896     +0.48472357
    e   0.3220373      Incl.    6.07988     +0.25396317     +0.15701174
    P   1.46           H   27.4           G   0.15           U   5
    Residuals in seconds of arc
    170917 T08  0.2+  0.5+    170918 K88  0.1-  0.4+    170919 850 (1.4-  1.7-)
    170917 T08  0.9+  0.5-    170918 J04  0.2-  0.2+    170919 850 (1.3-  1.8-)
    170917 T08  0.0   0.5-    170918 J04  0.1-  0.2+    170919 850 (2.2-  3.1-)
    170917 T08  0.0   0.2-    170918 J04  0.4+  0.4+    170919 850 (3.7-  4.2-)
    170918 703  0.0   0.5+    170918 L04  0.8+  0.6+    170919 I52 (1.9+  1.8+)
    170918 703  0.1-  0.0     170918 L04  0.6+  0.3+    170919 I52 (1.5+  1.5+)
    170918 703  0.1-  0.3-    170918 L04  0.2+  0.2+    170919 I52  1.4+  1.4+
    170918 I52  0.2+  0.5-    170918 K61  0.6-  0.2-    170919 I52  1.4+  1.2+
    170918 I52  0.3+  0.1+    170918 K61  0.6-  0.2-    170919 J95  0.2+  0.5-
    170918 I52  0.5+  0.1-    170918 K61  0.6-  0.2+    170919 J95  0.1+  0.1-
    170918 I52  0.3+  0.1-    170918 K61  0.8-  0.1+    170919 J95  0.1+  0.5+
    170918 E23  0.8+  1.0-    170918 K61  0.9-  0.2-    170919 J95  0.1-  0.3+
    170918 E23  0.4-  0.7-    170919 K61  0.6-  0.3-    170919 J95  0.2+  0.5+
    170918 P93  0.4+  0.0     170919 W34  0.9-  0.6-    170919 J95  0.1-  0.2-
    170918 E23 (0.3+  2.0+)   170919 W34  0.5-  0.2+    170919 J95  0.2-  0.5+
    170918 P93  0.2+  0.2+    170919 W34  1.1-  0.4-    170919 J95  0.0   0.3+
    170918 P93  0.2+  0.5+    170919 850  0.6-  1.3-    170919 J95  0.0   0.1-
    170918 P93  0.6+  0.0     170919 850 (1.4-  2.2-)   170919 J95  0.0   0.6-
    170918 P93  0.2+  0.3+    170919 926  0.6-  0.3+    170919 J95  0.1+  0.1-
    170918 P93  0.3+  0.4+    170919 926  0.8-  0.2-    170919 J95  0.2+  0.3-
    170918 K88  0.1+  0.0     170919 926  0.1-  0.8+
    170918 K88  0.3-  0.2+    170919 850 (1.4-  1.8-)
    
    Ephemeris:
    2017 SM2                 a,e,i = 1.29, 0.32, 6                   q = 0.8738
    Date    TT    R. A. (2000) Decl.     Delta      r     Elong.  Phase     V
    2017 08 21    22 18 01.9 +12 11 19   0.1555  1.1548   155.2    21.5    24.7
    ...
    2017 09 05    22 13 25.1 +13 07 26   0.07520 1.0781   157.5    21.0    23.0
    ...
    2017 09 13    22 07 20.6 +12 10 55   0.03556 1.0386   155.1    24.1    21.4
    ...
    2017 09 19    21 27 53.0 +00 59 14   0.0067081.0102   145.5    34.2    18.0
    2017 09 20    19 48 39.5 -25 47 06   0.0025761.0055   117.3    62.6    16.7
    2017 09 21    11 53 54.0 -35 48 21   0.0039161.0009    36.6   143.2    22.7
    ...
    2017 09 27    10 21 00.1 -15 58 10   0.03243 0.9748    31.4   147.6    27.9
    ...
    2017 10 05    10 17 52.7 -14 11 55   0.07174 0.9437    37.0   140.4    28.5
    ...
    2017 10 20    10 27 48.5 -13 06 21   0.1489  0.9003    46.7   126.4    28.4
    
    A. U. Tomatic                (C) Copyright 2017 MPC           M.P.E.C. 2017-S82
    

    Read MPEC 2017-S81 Read MPEC 2017-S83


    MPEC number:

    Enter an MPEC number in one of the following forms:

    • 1997-B01 (the full form)
    • J97B01 (the packed version of the full form)
    • B01 (the abbreviated form)